WODKAN Weather Reports


time (UTC)temp
C
wind
direction
speed
KPH
gust
KPH
rain 1hr
cm
rain 24hr
cm
rain mn
cm
humidity
%
barometer
mb
20260504171843 24 219 1.6 8.0 0.00 0.00 0.00 38 1009.9
20260504171346 25 246 1.6 4.8 0.00 0.00 0.00 38 1009.8
20260504170908 25 247 1.6 6.4 0.00 0.00 0.00 37 1009.8
20260504170406 25 247 0.0 6.4 0.00 0.00 0.00 37 1009.8
20260504160337 26 248 4.8 11.3 0.00 0.00 0.00 35 1009.9
20260504150839 27 261 3.2 16.1 0.00 0.00 0.00 35 1010.2
20260504150343 27 284 6.4 16.1 0.00 0.00 0.00 35 1010.2
20260504140902 27 205 6.4 12.9 0.00 0.00 0.00 35 1010.4
20260504140328 27 200 1.6 16.1 0.00 0.00 0.00 37 1010.6
20260504130359 26 277 3.2 12.9 0.00 0.00 0.00 39 1010.9
20260504110347 25 276 9.7 16.1 0.00 0.00 0.00 38 1011.9
20260504100338 24 280 8.0 16.1 0.00 0.00 0.00 41 1012.4
20260504081856 22 193 6.4 14.5 0.00 0.00 0.00 44 1012.6
20260504081340 22 207 4.8 11.3 0.00 0.00 0.00 43 1012.6
20260504080839 22 234 6.4 12.9 0.00 0.00 0.00 44 1012.6
20260504080333 21 232 8.0 12.9 0.00 0.00 0.00 44 1012.5
20260504070333 19 200 3.2 12.9 0.00 0.00 0.00 48 1012.6
20260504050337 15 211 3.2 8.0 0.00 0.00 0.00 54 1012.4
20260504045849 15 237 1.6 8.0 0.00 0.00 0.00 55 1012.4
20260504045331 14 240 3.2 8.0 0.00 0.00 0.00 55 1012.4
20260504044853 14 236 1.6 11.3 0.00 0.00 0.00 56 1012.4
20260504044331 13 219 3.2 8.0 0.00 0.00 0.00 57 1012.3
20260504043830 13 212 0.0 0.0 0.00 0.00 0.00 57 1012.3
20260504043334 13 212 0.0 0.0 0.00 0.00 0.00 58 1012.3
20260504042857 13 211 0.0 0.0 0.00 0.00 0.00 59 1012.3
20260504042339 12 211 0.0 0.0 0.00 0.00 0.00 60 1012.3
20260504041838 12 211 0.0 0.0 0.00 0.00 0.00 61 1012.2
20260504041336 12 211 0.0 0.0 0.00 0.00 0.00 62 1012.2
20260504040835 11 211 0.0 0.0 0.00 0.00 0.00 63 1012.2
20260504040339 11 211 0.0 0.0 0.00 0.00 0.00 64 1012.2
20260504035850 11 211 0.0 0.0 0.00 0.00 0.00 65 1012.1
20260504035348 11 211 0.0 0.0 0.00 0.00 0.00 66 1012.1
20260504034831 10 211 0.0 0.0 0.00 0.00 0.00 66 1012.1
20260504034332 10 211 0.0 0.0 0.00 0.00 0.00 67 1012.0
20260504033832 10 211 0.0 0.0 0.00 0.00 0.00 67 1012.1
20260504033331 10 211 0.0 0.0 0.00 0.00 0.00 68 1012.1
20260504032834 10 211 0.0 0.0 0.00 0.00 0.00 69 1012.0
20260504032335 10 211 0.0 0.0 0.00 0.00 0.00 67 1012.0
20260504031835 10 211 0.0 0.0 0.00 0.00 0.00 66 1012.1
20260504031337 10 211 0.0 0.0 0.00 0.00 0.00 65 1012.1
20260504030836 10 211 0.0 0.0 0.00 0.00 0.00 65 1012.1
20260504030338 11 211 0.0 0.0 0.00 0.00 0.00 65 1012.1
20260504025832 11 211 0.0 0.0 0.00 0.00 0.00 64 1012.1
20260504025353 11 211 0.0 0.0 0.00 0.00 0.00 62 1012.1
20260504024832 11 211 0.0 0.0 0.00 0.00 0.00 62 1012.1
20260504024332 11 211 0.0 0.0 0.00 0.00 0.00 61 1012.1
20260504023836 11 211 0.0 0.0 0.00 0.00 0.00 61 1012.1
20260504023337 12 211 0.0 0.0 0.00 0.00 0.00 61 1012.1
20260504022837 12 211 0.0 0.0 0.00 0.00 0.00 60 1012.1
20260504022341 12 211 0.0 0.0 0.00 0.00 0.00 60 1012.1
20260504021845 12 211 0.0 0.0 0.00 0.00 0.00 60 1012.1
20260504021346 12 211 0.0 0.0 0.00 0.00 0.00 59 1012.1
20260504020845 12 211 0.0 0.0 0.00 0.00 0.00 59 1012.1
20260504020347 12 211 0.0 0.0 0.00 0.00 0.00 59 1012.1
20260504015838 12 211 0.0 0.0 0.00 0.00 0.00 59 1012.1
20260504015341 12 211 0.0 0.0 0.00 0.00 0.00 59 1012.1
20260504014843 12 211 0.0 6.4 0.00 0.00 0.00 59 1012.1
20260504014345 12 211 0.0 6.4 0.00 0.00 0.00 60 1012.1
20260504013835 12 221 0.0 0.0 0.00 0.00 0.00 60 1012.0
20260504013353 12 221 0.0 0.0 0.00 0.00 0.00 60 1012.1
20260504012832 12 221 0.0 0.0 0.00 0.00 0.00 60 1012.1
20260504012336 12 221 0.0 0.0 0.00 0.00 0.00 60 1012.1
20260504011839 12 221 0.0 0.0 0.00 0.00 0.00 60 1012.2
20260504011359 12 221 0.0 0.0 0.00 0.00 0.00 60 1012.2
20260504010841 12 221 0.0 0.0 0.00 0.00 0.00 61 1012.2
20260504010344 12 221 0.0 0.0 0.00 0.00 0.00 60 1012.2
20260504005839 12 221 0.0 0.0 0.00 0.00 0.00 60 1012.2
20260504005339 12 221 0.0 0.0 0.00 0.00 0.00 60 1012.3
20260504004839 12 221 0.0 0.0 0.00 0.00 0.00 60 1012.3
20260504004339 12 221 0.0 0.0 0.00 0.00 0.00 60 1012.3
20260504003842 12 221 0.0 0.0 0.00 0.00 0.00 60 1012.3
20260504003345 12 221 0.0 1.6 0.00 0.00 0.00 60 1012.3
20260504002828 12 221 0.0 1.6 0.00 0.00 0.00 60 1012.4
20260504002330 13 221 0.0 0.0 0.00 0.00 0.00 60 1012.3
20260504001829 13 221 0.0 1.6 0.00 0.00 0.00 60 1012.3
20260504001336 13 221 0.0 1.6 0.00 0.00 0.00 60 1012.4
20260504000835 13 221 0.0 0.0 0.00 0.00 0.00 60 1012.4
20260504000335 13 221 0.0 3.2 0.00 0.00 0.00 60 1012.5
20260503235826 13 221 0.0 4.8 0.00 0.00 0.00 61 1012.5
20260503235331 13 221 0.0 3.2 0.00 0.00 0.00 61 1012.5
20260503234854 13 221 0.0 1.6 0.00 0.00 0.00 62 1012.6
20260503234332 13 221 0.0 1.6 0.00 0.00 0.00 62 1012.6
20260503233834 13 221 0.0 1.6 0.00 0.00 0.00 63 1012.6
20260503233334 12 221 0.0 3.2 0.00 0.00 0.00 63 1012.6
20260503232834 12 221 0.0 0.0 0.00 0.00 0.00 63 1012.6
20260503232337 12 221 0.0 0.0 0.00 0.00 0.00 64 1012.7
20260503231856 12 221 0.0 0.0 0.00 0.00 0.00 64 1012.7
20260503231401 12 221 0.0 1.6 0.00 0.00 0.00 64 1012.6
20260503230843 12 221 0.0 1.6 0.00 0.00 0.00 65 1012.7
20260503230339 12 221 0.0 0.0 0.00 0.00 0.00 65 1012.7
20260503225833 12 221 0.0 0.0 0.00 0.00 0.00 65 1012.7
20260503225338 13 221 0.0 0.0 0.00 0.00 0.00 63 1012.7
20260503224837 13 221 0.0 0.0 0.00 0.00 0.00 64 1012.7
20260503224343 13 221 0.0 0.0 0.00 0.00 0.00 63 1012.6
20260503223843 13 221 0.0 0.0 0.00 0.00 0.00 63 1012.7
20260503223347 13 221 0.0 0.0 0.00 0.00 0.00 63 1012.8
20260503222844 13 221 0.0 0.0 0.00 0.00 0.00 64 1012.8
20260503222345 12 221 0.0 0.0 0.00 0.00 0.00 65 1012.8
20260503221845 12 221 0.0 0.0 0.00 0.00 0.00 65 1012.9
20260503221347 12 221 0.0 0.0 0.00 0.00 0.00 65 1012.8
20260503220831 12 221 0.0 0.0 0.00 0.00 0.00 65 1012.8
20260503220347 13 221 0.0 0.0 0.00 0.00 0.00 66 1012.8
20260503215838 13 221 0.0 0.0 0.00 0.00 0.00 64 1012.9
20260503215340 13 221 0.0 0.0 0.00 0.00 0.00 64 1012.9
20260503214859 13 221 0.0 0.0 0.00 0.00 0.00 64 1012.9
20260503214337 13 221 0.0 0.0 0.00 0.00 0.00 64 1012.9
20260503213841 13 221 0.0 0.0 0.00 0.00 0.00 63 1012.9
20260503213344 13 221 0.0 0.0 0.00 0.00 0.00 63 1012.9
20260503212843 14 221 0.0 0.0 0.00 0.00 0.00 63 1012.9
20260503212347 14 221 0.0 0.0 0.00 0.00 0.00 61 1012.8
20260503211907 14 221 0.0 0.0 0.00 0.00 0.00 60 1012.9
20260503211345 14 221 0.0 0.0 0.00 0.00 0.00 59 1012.9
20260503210828 14 221 0.0 0.0 0.00 0.00 0.00 57 1012.9
20260503210335 15 221 0.0 0.0 0.00 0.00 0.00 56 1013.0
20260503205905 15 221 0.0 0.0 0.00 0.00 0.00 56 1013.0
20260503205343 15 221 0.0 0.0 0.00 0.00 0.00 56 1013.0
20260503204843 15 221 0.0 0.0 0.00 0.00 0.00 55 1013.0
20260503204400 15 221 0.0 0.0 0.00 0.00 0.00 55 1012.9
20260503203843 15 221 0.0 0.0 0.00 0.00 0.00 54 1012.9
20260503203329 15 221 0.0 0.0 0.00 0.00 0.00 53 1012.9
20260503202852 16 221 0.0 0.0 0.00 0.00 0.00 54 1012.8
20260503202332 16 221 0.0 0.0 0.00 0.00 0.00 53 1012.9
20260503201831 16 221 0.0 0.0 0.00 0.00 0.00 53 1012.9
20260503201332 16 221 0.0 0.0 0.00 0.00 0.00 52 1012.9
20260503200831 16 221 0.0 0.0 0.00 0.00 0.00 50 1012.9
20260503200336 17 221 0.0 0.0 0.00 0.00 0.00 50 1012.9
20260503195335 17 221 0.0 0.0 0.00 0.00 0.00 49 1012.9
20260503194905 17 221 0.0 0.0 0.00 0.00 0.00 48 1013.0
20260503194346 17 221 0.0 0.0 0.00 0.00 0.00 48 1013.0
20260503193845 17 221 0.0 1.6 0.00 0.00 0.00 47 1013.0
20260503193346 17 221 0.0 3.2 0.00 0.00 0.00 48 1013.0
20260503192830 17 221 0.0 4.8 0.00 0.00 0.00 48 1013.0
20260503192335 17 221 0.0 3.2 0.00 0.00 0.00 48 1012.9
20260503191854 17 221 1.6 3.2 0.00 0.00 0.00 48 1012.9
20260503191333 17 221 0.0 0.0 0.00 0.00 0.00 48 1012.9
20260503190852 17 221 0.0 0.0 0.00 0.00 0.00 48 1012.8
20260503190331 18 221 0.0 0.0 0.00 0.00 0.00 47 1012.9
20260503185843 18 221 0.0 0.0 0.00 0.00 0.00 47 1012.9
20260503185346 18 221 0.0 0.0 0.00 0.00 0.00 46 1012.8
20260503184846 18 221 0.0 0.0 0.00 0.00 0.00 46 1012.8
20260503184348 18 221 0.0 0.0 0.00 0.00 0.00 45 1012.8
20260503183830 19 221 0.0 0.0 0.00 0.00 0.00 44 1012.7
20260503183333 19 221 0.0 0.0 0.00 0.00 0.00 43 1012.7
20260503182832 20 221 0.0 0.0 0.00 0.00 0.00 42 1012.7
20260503182335 20 221 0.0 0.0 0.00 0.00 0.00 41 1012.6
20260503181837 21 221 0.0 0.0 0.00 0.00 0.00 39 1012.6
20260503181355 21 221 0.0 0.0 0.00 0.00 0.00 38 1012.6
20260503180829 22 221 0.0 0.0 0.00 0.00 0.00 37 1012.6
20260503180329 22 221 0.0 0.0 0.00 0.00 0.00 36 1012.5
20260503175828 22 221 0.0 0.0 0.00 0.00 0.00 35 1012.6
20260503175352 23 221 0.0 1.6 0.00 0.00 0.00 35 1012.5
20260503174831 23 221 0.0 3.2 0.00 0.00 0.00 33 1012.4
20260503174332 23 221 0.0 3.2 0.00 0.00 0.00 33 1012.4
20260503173831 24 221 1.6 3.2 0.00 0.00 0.00 32 1012.4
20260503173351 24 221 0.0 3.2 0.00 0.00 0.00 32 1012.4
20260503172853 24 221 0.0 4.8 0.00 0.00 0.00 31 1012.4
20260503172334 25 221 1.6 4.8 0.00 0.00 0.00 31 1012.4